Year,Month,Day,Hour,Minute,Value (Times are PST for temperature in C)
2017,10,24,00,00,10.60
2017,10,24,00,01,10.60
2017,10,24,00,02,10.50
2017,10,24,00,03,10.50
2017,10,24,00,04,10.40
2017,10,24,00,05,10.40
2017,10,24,00,06,10.30
2017,10,24,00,07,10.30
2017,10,24,00,08,10.30
2017,10,24,00,09,10.20
2017,10,24,00,10,10.20
2017,10,24,00,11,10.20
2017,10,24,00,12,10.20
2017,10,24,00,13,10.20
2017,10,24,00,14,10.20
2017,10,24,00,15,10.20
2017,10,24,00,16,10.10
2017,10,24,00,17,10.10
2017,10,24,00,18,10.10
2017,10,24,00,19,10.10
2017,10,24,00,20,10.10
2017,10,24,00,21,10.10
2017,10,24,00,22,10.10
2017,10,24,00,23,10.10
2017,10,24,00,24,10.10
2017,10,24,00,25,10.10
2017,10,24,00,26,10.00
2017,10,24,00,27,10.00
2017,10,24,00,28,10.00
2017,10,24,00,29,9.90
2017,10,24,00,30,9.90
2017,10,24,00,31,9.90
2017,10,24,00,32,9.80
2017,10,24,00,33,9.80
2017,10,24,00,34,9.80
2017,10,24,00,35,9.80
2017,10,24,00,36,9.80
2017,10,24,00,37,9.80
2017,10,24,00,38,9.80
2017,10,24,00,39,9.80
2017,10,24,00,40,9.80
2017,10,24,00,41,9.80
2017,10,24,00,42,9.80
2017,10,24,00,43,9.80
2017,10,24,00,44,9.80
2017,10,24,00,45,9.80
2017,10,24,00,46,9.80
2017,10,24,00,47,9.70
2017,10,24,00,48,9.70
2017,10,24,00,49,9.70
2017,10,24,00,50,9.70
2017,10,24,00,51,9.70
2017,10,24,00,52,9.70
2017,10,24,00,53,9.70
2017,10,24,00,54,9.70
2017,10,24,00,55,9.70
2017,10,24,00,56,9.70
2017,10,24,00,57,9.70
2017,10,24,00,58,9.70
2017,10,24,00,59,9.60
2017,10,24,01,00,9.60
2017,10,24,01,01,9.60
2017,10,24,01,02,9.60
2017,10,24,01,03,9.60
2017,10,24,01,04,9.60
2017,10,24,01,05,9.60
2017,10,24,01,06,9.60
2017,10,24,01,07,9.50
2017,10,24,01,08,9.60
2017,10,24,01,09,9.60
2017,10,24,01,10,9.60
2017,10,24,01,11,9.60
2017,10,24,01,12,9.60
2017,10,24,01,13,9.60
2017,10,24,01,14,9.50
2017,10,24,01,15,9.50
2017,10,24,01,16,9.50
2017,10,24,01,17,9.50
2017,10,24,01,18,9.50
2017,10,24,01,19,9.50
2017,10,24,01,20,9.60
2017,10,24,01,21,9.60
2017,10,24,01,22,9.60
2017,10,24,01,23,9.60
2017,10,24,01,24,9.60
2017,10,24,01,25,9.60
2017,10,24,01,26,9.60
2017,10,24,01,27,9.50
2017,10,24,01,28,9.50
2017,10,24,01,29,9.40
2017,10,24,01,30,9.40
2017,10,24,01,31,9.40
2017,10,24,01,32,9.40
2017,10,24,01,33,9.30
2017,10,24,01,34,9.30
2017,10,24,01,35,9.30
2017,10,24,01,36,9.20
2017,10,24,01,37,9.20
2017,10,24,01,38,9.20
2017,10,24,01,39,9.10
2017,10,24,01,40,9.10
2017,10,24,01,41,9.10
2017,10,24,01,42,9.10
2017,10,24,01,43,9.10
2017,10,24,01,44,9.10
2017,10,24,01,45,9.10
2017,10,24,01,46,9.10
2017,10,24,01,47,9.10
2017,10,24,01,48,9.10
2017,10,24,01,49,9.20
2017,10,24,01,50,9.20
2017,10,24,01,51,9.30
2017,10,24,01,52,9.30
2017,10,24,01,53,9.30
2017,10,24,01,54,9.30
2017,10,24,01,55,9.40
2017,10,24,01,56,9.40
2017,10,24,01,57,9.40
2017,10,24,01,58,9.40
2017,10,24,01,59,9.40
2017,10,24,02,00,9.40
2017,10,24,02,01,9.30
2017,10,24,02,02,9.30
2017,10,24,02,03,9.20
2017,10,24,02,04,9.20
2017,10,24,02,05,9.20
2017,10,24,02,06,9.20
2017,10,24,02,07,9.20
2017,10,24,02,08,9.20
2017,10,24,02,09,9.20
2017,10,24,02,10,9.10
2017,10,24,02,11,9.10
2017,10,24,02,12,9.10
2017,10,24,02,13,9.10
2017,10,24,02,14,9.10
2017,10,24,02,15,9.10
2017,10,24,02,16,9.10
2017,10,24,02,17,9.10
2017,10,24,02,18,9.10
2017,10,24,02,19,9.10
2017,10,24,02,20,9.10
2017,10,24,02,21,9.10
2017,10,24,02,22,9.10
2017,10,24,02,23,9.10
2017,10,24,02,24,9.10
2017,10,24,02,25,9.10
2017,10,24,02,26,9.10
2017,10,24,02,27,9.10
2017,10,24,02,28,9.10
2017,10,24,02,29,9.10
2017,10,24,02,30,9.10
2017,10,24,02,31,9.10
2017,10,24,02,32,9.00
2017,10,24,02,33,9.00
2017,10,24,02,34,9.00
2017,10,24,02,35,8.90
2017,10,24,02,36,8.90
2017,10,24,02,37,8.90
2017,10,24,02,38,8.90
2017,10,24,02,39,8.90
2017,10,24,02,40,8.90
2017,10,24,02,41,8.90
2017,10,24,02,42,8.90
2017,10,24,02,43,8.90
2017,10,24,02,44,8.90
2017,10,24,02,45,8.90
2017,10,24,02,46,8.80
2017,10,24,02,47,8.80
2017,10,24,02,48,8.80
2017,10,24,02,49,8.80
2017,10,24,02,50,8.80
2017,10,24,02,51,8.80
2017,10,24,02,52,8.80
2017,10,24,02,53,8.80
2017,10,24,02,54,8.80
2017,10,24,02,55,8.80
2017,10,24,02,56,8.70
2017,10,24,02,57,8.70
2017,10,24,02,58,8.70
2017,10,24,02,59,8.70
2017,10,24,03,00,8.70
2017,10,24,03,01,8.70
2017,10,24,03,02,8.70
2017,10,24,03,03,8.70
2017,10,24,03,04,8.70
2017,10,24,03,05,8.70
2017,10,24,03,06,8.70
2017,10,24,03,07,8.70
2017,10,24,03,08,8.70
2017,10,24,03,09,8.70
2017,10,24,03,10,8.70
2017,10,24,03,11,8.70
2017,10,24,03,12,8.70
2017,10,24,03,13,8.70
2017,10,24,03,14,8.70
2017,10,24,03,15,8.70
2017,10,24,03,16,8.70
2017,10,24,03,17,8.70
2017,10,24,03,18,8.80
2017,10,24,03,19,8.80
2017,10,24,03,20,8.80
2017,10,24,03,21,8.80
2017,10,24,03,22,8.80
2017,10,24,03,23,8.80
2017,10,24,03,24,8.80
2017,10,24,03,25,8.70
2017,10,24,03,26,8.70
2017,10,24,03,27,8.70
2017,10,24,03,28,8.70
2017,10,24,03,29,8.70
2017,10,24,03,30,8.70
2017,10,24,03,31,8.70
2017,10,24,03,32,8.70
2017,10,24,03,33,8.70
2017,10,24,03,34,8.70
2017,10,24,03,35,8.60
2017,10,24,03,36,8.60
2017,10,24,03,37,8.60
2017,10,24,03,38,8.60
2017,10,24,03,39,8.60
2017,10,24,03,40,8.60
2017,10,24,03,41,8.70
2017,10,24,03,42,8.70
2017,10,24,03,43,8.70
2017,10,24,03,44,8.60
2017,10,24,03,45,8.60
2017,10,24,03,46,8.60
2017,10,24,03,47,8.60
2017,10,24,03,48,8.60
2017,10,24,03,49,8.60
2017,10,24,03,50,8.60
2017,10,24,03,51,8.60
2017,10,24,03,52,8.50
2017,10,24,03,53,8.50
2017,10,24,03,54,8.50
2017,10,24,03,55,8.50
2017,10,24,03,56,8.50
2017,10,24,03,57,8.50
2017,10,24,03,58,8.50
2017,10,24,03,59,8.50
2017,10,24,04,00,8.50
2017,10,24,04,01,8.50
2017,10,24,04,02,8.40
2017,10,24,04,03,8.40
2017,10,24,04,04,8.40
2017,10,24,04,05,8.40
2017,10,24,04,06,8.40
2017,10,24,04,07,8.40
2017,10,24,04,08,8.40
2017,10,24,04,09,8.40
2017,10,24,04,10,8.30
2017,10,24,04,11,8.30
2017,10,24,04,12,8.30
2017,10,24,04,13,8.30
2017,10,24,04,14,8.30
2017,10,24,04,15,8.30
2017,10,24,04,16,8.30
2017,10,24,04,17,8.30
2017,10,24,04,18,8.30
2017,10,24,04,19,8.30
2017,10,24,04,20,8.30
2017,10,24,04,21,8.30
2017,10,24,04,22,8.30
2017,10,24,04,23,8.30
2017,10,24,04,24,8.30
2017,10,24,04,25,8.30
2017,10,24,04,26,8.30
2017,10,24,04,27,8.30
2017,10,24,04,28,8.20
2017,10,24,04,29,8.20
2017,10,24,04,30,8.20
2017,10,24,04,31,8.20
2017,10,24,04,32,8.20
2017,10,24,04,33,8.20
2017,10,24,04,34,8.20
2017,10,24,04,35,8.20
2017,10,24,04,36,8.20
2017,10,24,04,37,8.20
2017,10,24,04,38,8.20
2017,10,24,04,39,8.10
2017,10,24,04,40,8.10
2017,10,24,04,41,8.10
2017,10,24,04,42,8.10
2017,10,24,04,43,8.10
2017,10,24,04,44,8.10
2017,10,24,04,45,8.10
2017,10,24,04,46,8.10
2017,10,24,04,47,8.20
2017,10,24,04,48,8.20
2017,10,24,04,49,8.20
2017,10,24,04,50,8.20
2017,10,24,04,51,8.20
2017,10,24,04,52,8.20
2017,10,24,04,53,8.20
2017,10,24,04,54,8.10
2017,10,24,04,55,8.10
2017,10,24,04,56,8.10
2017,10,24,04,57,8.10
2017,10,24,04,58,8.10
2017,10,24,04,59,8.00
2017,10,24,05,00,8.00
2017,10,24,05,01,8.00
2017,10,24,05,02,8.00
2017,10,24,05,03,8.00
2017,10,24,05,04,8.00
2017,10,24,05,05,8.00
2017,10,24,05,06,8.00
2017,10,24,05,07,8.00
2017,10,24,05,08,8.00
2017,10,24,05,09,8.00
2017,10,24,05,10,8.00
2017,10,24,05,11,7.90
2017,10,24,05,12,7.90
2017,10,24,05,13,7.90
2017,10,24,05,14,7.90
2017,10,24,05,15,7.80
2017,10,24,05,16,7.80
2017,10,24,05,17,7.80
2017,10,24,05,18,7.80
2017,10,24,05,19,7.80
2017,10,24,05,20,7.90
2017,10,24,05,21,7.90
2017,10,24,05,22,7.90
2017,10,24,05,23,7.90
2017,10,24,05,24,7.90
2017,10,24,05,25,7.90
2017,10,24,05,26,8.00
2017,10,24,05,27,8.00
2017,10,24,05,28,8.00
2017,10,24,05,29,8.00
2017,10,24,05,30,8.00
2017,10,24,05,31,8.00
2017,10,24,05,32,7.90
2017,10,24,05,33,7.90
2017,10,24,05,34,7.90
2017,10,24,05,35,7.90
2017,10,24,05,36,7.90
2017,10,24,05,37,7.90
2017,10,24,05,38,7.90
2017,10,24,05,39,7.90
2017,10,24,05,40,7.90
2017,10,24,05,41,7.80
2017,10,24,05,42,7.80
2017,10,24,05,43,7.80
2017,10,24,05,44,7.80
2017,10,24,05,45,7.80
2017,10,24,05,46,7.80
2017,10,24,05,47,7.80
2017,10,24,05,48,7.80
2017,10,24,05,49,7.80
2017,10,24,05,50,7.80
2017,10,24,05,51,7.80
2017,10,24,05,52,7.70
2017,10,24,05,53,7.70
2017,10,24,05,54,7.70
2017,10,24,05,55,7.60
2017,10,24,05,56,7.60
2017,10,24,05,57,7.60
2017,10,24,05,58,7.50
2017,10,24,05,59,7.40
2017,10,24,06,00,7.40
2017,10,24,06,01,7.40
2017,10,24,06,02,7.30
2017,10,24,06,03,7.30
2017,10,24,06,04,7.30
2017,10,24,06,05,7.30
2017,10,24,06,06,7.30
2017,10,24,06,07,7.30
2017,10,24,06,08,7.30
2017,10,24,06,09,7.30
2017,10,24,06,10,7.30
2017,10,24,06,11,7.30
2017,10,24,06,12,7.30
2017,10,24,06,13,7.30
2017,10,24,06,14,7.30
2017,10,24,06,15,7.30
2017,10,24,06,16,7.30
2017,10,24,06,17,7.30
2017,10,24,06,18,7.40
2017,10,24,06,19,7.50
2017,10,24,06,20,7.60
2017,10,24,06,21,7.60
2017,10,24,06,22,7.70
2017,10,24,06,23,7.60
2017,10,24,06,24,7.60
2017,10,24,06,25,7.50
2017,10,24,06,26,7.50
2017,10,24,06,27,7.40
2017,10,24,06,28,7.30
2017,10,24,06,29,7.30
2017,10,24,06,30,7.30
2017,10,24,06,31,7.20
2017,10,24,06,32,7.20
2017,10,24,06,33,7.20
2017,10,24,06,34,7.10
2017,10,24,06,35,7.10
2017,10,24,06,36,7.10
2017,10,24,06,37,7.10
2017,10,24,06,38,7.10
2017,10,24,06,39,7.10
2017,10,24,06,40,7.00
2017,10,24,06,41,6.90
2017,10,24,06,42,6.80
2017,10,24,06,43,6.80
2017,10,24,06,44,6.80
2017,10,24,06,45,6.70
2017,10,24,06,46,6.70
2017,10,24,06,47,6.70
2017,10,24,06,48,6.70
2017,10,24,06,49,6.70
2017,10,24,06,50,6.80
2017,10,24,06,51,6.80
2017,10,24,06,52,6.80
2017,10,24,06,53,6.70
2017,10,24,06,54,6.70
2017,10,24,06,55,6.80
2017,10,24,06,56,6.80
2017,10,24,06,57,6.80
2017,10,24,06,58,6.80
2017,10,24,06,59,6.90
2017,10,24,07,00,6.90
2017,10,24,07,01,7.00
2017,10,24,07,02,7.10
2017,10,24,07,03,7.20
2017,10,24,07,04,7.30
2017,10,24,07,05,7.40
2017,10,24,07,06,7.50
2017,10,24,07,07,7.50
2017,10,24,07,08,7.50
2017,10,24,07,09,7.50
2017,10,24,07,10,7.40
2017,10,24,07,11,7.50
2017,10,24,07,12,7.50
2017,10,24,07,13,7.50
2017,10,24,07,14,7.50
2017,10,24,07,15,7.50
2017,10,24,07,16,7.40
2017,10,24,07,17,7.40
2017,10,24,07,18,7.40
2017,10,24,07,19,7.40
2017,10,24,07,20,7.40
2017,10,24,07,21,7.30
2017,10,24,07,22,7.30
2017,10,24,07,23,7.30
2017,10,24,07,24,7.30
2017,10,24,07,25,7.30
2017,10,24,07,26,7.30
2017,10,24,07,27,7.30
2017,10,24,07,28,7.30
2017,10,24,07,29,7.30
2017,10,24,07,30,7.30
2017,10,24,07,31,7.20
2017,10,24,07,32,7.20
2017,10,24,07,33,7.20
2017,10,24,07,34,7.20
2017,10,24,07,35,7.20
2017,10,24,07,36,7.20
2017,10,24,07,37,7.20
2017,10,24,07,38,7.10
2017,10,24,07,39,7.10
2017,10,24,07,40,7.10
2017,10,24,07,41,7.10
2017,10,24,07,42,7.10
2017,10,24,07,43,7.10
2017,10,24,07,44,7.10
2017,10,24,07,45,7.10
2017,10,24,07,46,7.10
2017,10,24,07,47,7.10
2017,10,24,07,48,7.10
2017,10,24,07,49,7.10
2017,10,24,07,50,7.00
2017,10,24,07,51,6.90
2017,10,24,07,52,6.80
2017,10,24,07,53,6.80
2017,10,24,07,54,6.80
2017,10,24,07,55,6.80
2017,10,24,07,56,6.80
2017,10,24,07,57,6.80
2017,10,24,07,58,6.80
2017,10,24,07,59,6.80
2017,10,24,08,00,6.90
2017,10,24,08,01,6.90
2017,10,24,08,02,6.90
2017,10,24,08,03,6.90
2017,10,24,08,04,6.90
2017,10,24,08,05,7.00
2017,10,24,08,06,6.90
2017,10,24,08,07,6.90
2017,10,24,08,08,6.90
2017,10,24,08,09,6.90
2017,10,24,08,10,6.90
2017,10,24,08,11,6.80
2017,10,24,08,12,6.80
2017,10,24,08,13,6.70
2017,10,24,08,14,6.70
2017,10,24,08,15,6.60
2017,10,24,08,16,6.60
2017,10,24,08,17,6.60
2017,10,24,08,18,6.60
2017,10,24,08,19,6.50
2017,10,24,08,20,6.50
2017,10,24,08,21,6.60
2017,10,24,08,22,6.60
2017,10,24,08,23,6.60
2017,10,24,08,24,6.70
2017,10,24,08,25,6.70
2017,10,24,08,26,6.70
2017,10,24,08,27,6.80
2017,10,24,08,28,6.80
2017,10,24,08,29,6.90
2017,10,24,08,30,6.90
2017,10,24,08,31,6.90
2017,10,24,08,32,7.00
2017,10,24,08,33,7.00
2017,10,24,08,34,7.00
2017,10,24,08,35,7.10
2017,10,24,08,36,7.20
2017,10,24,08,37,7.30
2017,10,24,08,38,7.30
2017,10,24,08,39,7.40
2017,10,24,08,40,7.40
2017,10,24,08,41,7.40
2017,10,24,08,42,7.50
2017,10,24,08,43,7.60
2017,10,24,08,44,7.60
2017,10,24,08,45,7.60
2017,10,24,08,46,7.70
2017,10,24,08,47,7.70
2017,10,24,08,48,7.70
2017,10,24,08,49,7.80
2017,10,24,08,50,7.80
2017,10,24,08,51,7.80
2017,10,24,08,52,7.80
2017,10,24,08,53,7.80
2017,10,24,08,54,7.90
2017,10,24,08,55,7.90
2017,10,24,08,56,7.90
2017,10,24,08,57,7.90
2017,10,24,08,58,8.00
2017,10,24,08,59,8.00
2017,10,24,09,00,8.00
2017,10,24,09,01,8.00
2017,10,24,09,02,8.00
2017,10,24,09,03,8.10
2017,10,24,09,04,8.10
2017,10,24,09,05,8.10
2017,10,24,09,06,8.10
2017,10,24,09,07,8.10
2017,10,24,09,08,8.10
2017,10,24,09,09,8.10
2017,10,24,09,10,8.10
2017,10,24,09,11,8.10
2017,10,24,09,12,8.10
2017,10,24,09,13,8.10
2017,10,24,09,14,8.10
2017,10,24,09,15,8.20
2017,10,24,09,16,8.20
2017,10,24,09,17,8.20
2017,10,24,09,18,8.10
2017,10,24,09,19,8.10
2017,10,24,09,20,8.10
2017,10,24,09,21,8.20
2017,10,24,09,22,8.20
2017,10,24,09,23,8.20
2017,10,24,09,24,8.20
2017,10,24,09,25,8.20
2017,10,24,09,26,8.20
2017,10,24,09,27,8.20
2017,10,24,09,28,8.20
2017,10,24,09,29,8.20
2017,10,24,09,30,8.30
2017,10,24,09,31,8.30
2017,10,24,09,32,8.30
2017,10,24,09,33,8.30
2017,10,24,09,34,8.30
2017,10,24,09,35,8.30
2017,10,24,09,36,8.40
2017,10,24,09,37,8.40
2017,10,24,09,38,8.40
2017,10,24,09,39,8.40
2017,10,24,09,40,8.40
2017,10,24,09,41,8.50
2017,10,24,09,42,8.50
2017,10,24,09,43,8.50
2017,10,24,09,44,8.50
2017,10,24,09,45,8.60
2017,10,24,09,46,8.60
2017,10,24,09,47,8.60
2017,10,24,09,48,8.60
2017,10,24,09,49,8.70
2017,10,24,09,50,8.70
2017,10,24,09,51,8.70
2017,10,24,09,52,8.70
2017,10,24,09,53,8.80
2017,10,24,09,54,8.80
2017,10,24,09,55,8.80
2017,10,24,09,56,8.80
2017,10,24,09,57,8.80
2017,10,24,09,58,8.80
2017,10,24,09,59,8.80
2017,10,24,10,00,8.80
2017,10,24,10,01,8.80
2017,10,24,10,02,8.80
2017,10,24,10,03,8.80
2017,10,24,10,04,8.80
2017,10,24,10,05,8.90
2017,10,24,10,06,8.90
2017,10,24,10,07,8.90
2017,10,24,10,08,9.00
2017,10,24,10,09,9.00
2017,10,24,10,10,9.00
2017,10,24,10,11,9.10
2017,10,24,10,12,9.10
2017,10,24,10,13,9.10
2017,10,24,10,14,9.20
2017,10,24,10,15,9.20
2017,10,24,10,16,9.20
2017,10,24,10,17,9.30
2017,10,24,10,18,9.30
2017,10,24,10,19,9.30
2017,10,24,10,20,9.30
2017,10,24,10,21,9.40
2017,10,24,10,22,9.40
2017,10,24,10,23,9.40
2017,10,24,10,24,9.40
2017,10,24,10,25,9.50
2017,10,24,10,26,9.50
2017,10,24,10,27,9.60
2017,10,24,10,28,9.60
2017,10,24,10,29,9.70
2017,10,24,10,30,9.70
2017,10,24,10,31,9.70
2017,10,24,10,32,9.70
2017,10,24,10,33,9.80
2017,10,24,10,34,9.80
2017,10,24,10,35,9.80
2017,10,24,10,36,9.90
2017,10,24,10,37,9.90
2017,10,24,10,38,10.00
2017,10,24,10,39,10.10
2017,10,24,10,40,10.20
2017,10,24,10,41,10.20
2017,10,24,10,42,10.30
2017,10,24,10,43,10.30
2017,10,24,10,44,10.30
2017,10,24,10,45,10.30
2017,10,24,10,46,10.40
2017,10,24,10,47,10.40
2017,10,24,10,48,10.40
2017,10,24,10,49,10.40
2017,10,24,10,50,10.50
2017,10,24,10,51,10.50
2017,10,24,10,52,10.60
2017,10,24,10,53,10.60
2017,10,24,10,54,10.70
2017,10,24,10,55,10.70
2017,10,24,10,56,10.80
2017,10,24,10,57,10.90
2017,10,24,10,58,10.90
2017,10,24,10,59,10.90
2017,10,24,11,00,10.90
2017,10,24,11,01,11.00
2017,10,24,11,02,11.10
2017,10,24,11,03,11.10
2017,10,24,11,04,11.10
2017,10,24,11,05,11.20
2017,10,24,11,06,11.20
2017,10,24,11,07,11.20
2017,10,24,11,08,11.30
2017,10,24,11,09,11.40
2017,10,24,11,10,11.40
2017,10,24,11,11,11.50
2017,10,24,11,12,11.60
2017,10,24,11,13,11.60
2017,10,24,11,14,11.70
2017,10,24,11,15,11.70
2017,10,24,11,16,11.70
2017,10,24,11,17,11.80
2017,10,24,11,18,11.80
2017,10,24,11,19,11.80
2017,10,24,11,20,11.90
2017,10,24,11,21,11.90
2017,10,24,11,22,11.90
2017,10,24,11,23,12.00
2017,10,24,11,24,12.00
2017,10,24,11,25,12.10
2017,10,24,11,26,12.10
2017,10,24,11,27,12.20
2017,10,24,11,28,12.20
2017,10,24,11,29,12.30
2017,10,24,11,30,12.30
2017,10,24,11,31,12.30
2017,10,24,11,32,12.30
2017,10,24,11,33,12.30
2017,10,24,11,34,12.30
2017,10,24,11,35,12.30
2017,10,24,11,36,12.30
2017,10,24,11,37,12.30
2017,10,24,11,38,12.40
2017,10,24,11,39,12.40
2017,10,24,11,40,12.40
2017,10,24,11,41,12.50
2017,10,24,11,42,12.50
2017,10,24,11,43,12.60
2017,10,24,11,44,12.60
2017,10,24,11,45,12.70
2017,10,24,11,46,12.70
2017,10,24,11,47,12.80
2017,10,24,11,48,12.80
2017,10,24,11,49,12.90
2017,10,24,11,50,12.90
2017,10,24,11,51,12.90
2017,10,24,11,52,12.90
2017,10,24,11,53,12.90
2017,10,24,11,54,12.90
2017,10,24,11,55,12.90
2017,10,24,11,56,12.90
2017,10,24,11,57,12.90
2017,10,24,11,58,12.90
2017,10,24,11,59,12.90
2017,10,24,12,00,12.90
2017,10,24,12,01,12.90
2017,10,24,12,02,12.90
2017,10,24,12,03,12.90
2017,10,24,12,04,12.90
2017,10,24,12,05,12.90
2017,10,24,12,06,12.90
2017,10,24,12,07,12.90
2017,10,24,12,08,12.90
2017,10,24,12,09,12.90
2017,10,24,12,10,13.00
2017,10,24,12,11,12.90
2017,10,24,12,12,12.90
2017,10,24,12,13,12.80
2017,10,24,12,14,12.80
2017,10,24,12,15,12.80
2017,10,24,12,16,12.80
2017,10,24,12,17,12.80
2017,10,24,12,18,12.90
2017,10,24,12,19,13.00
2017,10,24,12,20,13.10
2017,10,24,12,21,13.10
2017,10,24,12,22,13.20
2017,10,24,12,23,13.10
2017,10,24,12,24,13.20
2017,10,24,12,25,13.20
2017,10,24,12,26,13.20
2017,10,24,12,27,13.20
2017,10,24,12,28,13.30
2017,10,24,12,29,13.30
2017,10,24,12,30,13.40
2017,10,24,12,31,13.40
2017,10,24,12,32,13.40
2017,10,24,12,33,13.50
2017,10,24,12,34,13.50
2017,10,24,12,35,13.50
2017,10,24,12,36,13.60
2017,10,24,12,37,13.60
2017,10,24,12,38,13.60
2017,10,24,12,39,13.70
2017,10,24,12,40,13.70
2017,10,24,12,41,13.70
2017,10,24,12,42,13.70
2017,10,24,12,43,13.80
2017,10,24,12,44,13.80
2017,10,24,12,45,13.80
2017,10,24,12,46,13.80
2017,10,24,12,47,13.90
2017,10,24,12,48,13.90
2017,10,24,12,49,13.90
2017,10,24,12,50,13.90
2017,10,24,12,51,14.00
2017,10,24,12,52,14.00
2017,10,24,12,53,14.00
2017,10,24,12,54,14.10
2017,10,24,12,55,14.10
2017,10,24,12,56,14.20
2017,10,24,12,57,14.20
2017,10,24,12,58,14.20
2017,10,24,12,59,14.20
2017,10,24,13,00,14.20
2017,10,24,13,01,14.30
2017,10,24,13,02,14.30
2017,10,24,13,03,14.40
2017,10,24,13,04,14.40
2017,10,24,13,05,14.40
2017,10,24,13,06,14.50
2017,10,24,13,07,14.50
2017,10,24,13,08,14.40
2017,10,24,13,09,14.40
2017,10,24,13,10,14.40
2017,10,24,13,11,14.50
2017,10,24,13,12,14.60
2017,10,24,13,13,14.60
2017,10,24,13,14,14.70
2017,10,24,13,15,14.70
2017,10,24,13,16,14.70
2017,10,24,13,17,14.70
2017,10,24,13,18,14.80
2017,10,24,13,19,14.80
2017,10,24,13,20,14.80
2017,10,24,13,21,14.80
2017,10,24,13,22,14.80
2017,10,24,13,23,14.80
2017,10,24,13,24,14.80
2017,10,24,13,25,14.90
2017,10,24,13,26,14.90
2017,10,24,13,27,14.90
2017,10,24,13,28,14.90
2017,10,24,13,29,14.80
2017,10,24,13,30,14.80
2017,10,24,13,31,14.80
2017,10,24,13,32,14.80
2017,10,24,13,33,14.90
2017,10,24,13,34,14.90
2017,10,24,13,35,15.00
2017,10,24,13,36,15.00
2017,10,24,13,37,15.00
2017,10,24,13,38,15.10
2017,10,24,13,39,15.10
2017,10,24,13,40,15.20
2017,10,24,13,41,15.20
2017,10,24,13,42,15.30
2017,10,24,13,43,15.30
2017,10,24,13,44,15.40
2017,10,24,13,45,15.40
2017,10,24,13,46,15.40
2017,10,24,13,47,15.40
2017,10,24,13,48,15.40
2017,10,24,13,49,15.30
2017,10,24,13,50,15.30
2017,10,24,13,51,15.20
2017,10,24,13,52,15.20
2017,10,24,13,53,15.10
2017,10,24,13,54,15.10
2017,10,24,13,55,15.10
2017,10,24,13,56,15.10
2017,10,24,13,57,15.10
2017,10,24,13,58,15.10
2017,10,24,13,59,15.10
2017,10,24,14,00,15.10
2017,10,24,14,01,15.10
2017,10,24,14,02,15.10
2017,10,24,14,03,15.10
2017,10,24,14,04,15.10
2017,10,24,14,05,15.10
2017,10,24,14,06,15.10
2017,10,24,14,07,15.10
2017,10,24,14,08,15.10
2017,10,24,14,09,15.20
2017,10,24,14,10,15.20
2017,10,24,14,11,15.30
2017,10,24,14,12,15.30
2017,10,24,14,13,15.40
2017,10,24,14,14,15.40
2017,10,24,14,15,15.40
2017,10,24,14,16,15.40
2017,10,24,14,17,15.40
2017,10,24,14,18,15.40
2017,10,24,14,19,15.40
2017,10,24,14,20,15.40
2017,10,24,14,21,15.40
2017,10,24,14,22,15.40
2017,10,24,14,23,15.40
2017,10,24,14,24,15.40
2017,10,24,14,25,15.40
2017,10,24,14,26,15.50
2017,10,24,14,27,15.60
2017,10,24,14,28,15.60
2017,10,24,14,29,15.70
2017,10,24,14,30,15.70
2017,10,24,14,31,15.70
2017,10,24,14,32,15.80
2017,10,24,14,33,15.80
2017,10,24,14,34,15.80
2017,10,24,14,35,15.80
2017,10,24,14,36,15.90
2017,10,24,14,37,15.90
2017,10,24,14,38,15.90
2017,10,24,14,39,15.90
2017,10,24,14,40,16.00
2017,10,24,14,41,16.00
2017,10,24,14,42,16.10
2017,10,24,14,43,16.10
2017,10,24,14,44,16.10
2017,10,24,14,45,16.20
2017,10,24,14,46,16.20
2017,10,24,14,47,16.20
2017,10,24,14,48,16.20
2017,10,24,14,49,16.30
2017,10,24,14,50,16.30
2017,10,24,14,51,16.30
2017,10,24,14,52,16.30
2017,10,24,14,53,16.30
2017,10,24,14,54,16.30
2017,10,24,14,55,16.30
2017,10,24,14,56,16.30
2017,10,24,14,57,16.30
2017,10,24,14,58,16.40
2017,10,24,14,59,16.40
2017,10,24,15,00,16.40
2017,10,24,15,01,16.50
2017,10,24,15,02,16.60
2017,10,24,15,03,16.70
2017,10,24,15,04,16.70
2017,10,24,15,05,16.80
2017,10,24,15,06,16.90
2017,10,24,15,07,16.90
2017,10,24,15,08,16.90
2017,10,24,15,09,16.90
2017,10,24,15,10,17.00
2017,10,24,15,11,17.00
2017,10,24,15,12,16.90
2017,10,24,15,13,16.90
2017,10,24,15,14,16.80
2017,10,24,15,15,16.70
2017,10,24,15,16,16.70
2017,10,24,15,17,16.80
2017,10,24,15,18,16.80
2017,10,24,15,19,16.80
2017,10,24,15,20,16.80
2017,10,24,15,21,16.80
2017,10,24,15,22,16.80
2017,10,24,15,23,16.80
2017,10,24,15,24,16.70
2017,10,24,15,25,16.70
2017,10,24,15,26,16.70
2017,10,24,15,27,16.60
2017,10,24,15,28,16.60
2017,10,24,15,29,16.60
2017,10,24,15,30,16.60
2017,10,24,15,31,16.60
2017,10,24,15,32,16.50
2017,10,24,15,33,16.50
2017,10,24,15,34,16.50
2017,10,24,15,35,16.60
2017,10,24,15,36,16.60
2017,10,24,15,37,16.60
2017,10,24,15,38,16.60
2017,10,24,15,39,16.60
2017,10,24,15,40,16.50
2017,10,24,15,41,16.40
2017,10,24,15,42,16.40
2017,10,24,15,43,16.30
2017,10,24,15,44,16.30
2017,10,24,15,45,16.30
2017,10,24,15,46,16.30
2017,10,24,15,47,16.30
2017,10,24,15,48,16.30
2017,10,24,15,49,16.30
2017,10,24,15,50,16.30
2017,10,24,15,51,16.30
2017,10,24,15,52,16.30
2017,10,24,15,53,16.20
2017,10,24,15,54,16.10
2017,10,24,15,55,16.10
2017,10,24,15,56,16.10
2017,10,24,15,57,16.10
2017,10,24,15,58,16.10
2017,10,24,15,59,16.10
2017,10,24,16,00,16.10
2017,10,24,16,01,16.10
2017,10,24,16,02,16.10
2017,10,24,16,03,16.20
2017,10,24,16,04,16.20
2017,10,24,16,05,16.20
2017,10,24,16,06,16.20
2017,10,24,16,07,16.20
2017,10,24,16,08,16.10
2017,10,24,16,09,16.00
2017,10,24,16,10,16.00
2017,10,24,16,11,16.00
2017,10,24,16,12,16.00
2017,10,24,16,13,16.00
2017,10,24,16,14,15.90
2017,10,24,16,15,15.90
2017,10,24,16,16,15.90
2017,10,24,16,17,15.90
2017,10,24,16,18,15.90
2017,10,24,16,19,15.90
2017,10,24,16,20,16.00
2017,10,24,16,21,16.00
2017,10,24,16,22,16.10
2017,10,24,16,23,16.10
2017,10,24,16,24,16.10
2017,10,24,16,25,16.20
2017,10,24,16,26,16.20
2017,10,24,16,27,16.20
2017,10,24,16,28,16.30
2017,10,24,16,29,16.30
2017,10,24,16,30,16.30
2017,10,24,16,31,16.20
2017,10,24,16,32,16.20
2017,10,24,16,33,16.20
2017,10,24,16,34,16.20
2017,10,24,16,35,16.20
2017,10,24,16,36,16.20
2017,10,24,16,37,16.20
2017,10,24,16,38,16.20
2017,10,24,16,39,16.10
2017,10,24,16,40,16.10
2017,10,24,16,41,16.10
2017,10,24,16,42,16.00
2017,10,24,16,43,16.00
2017,10,24,16,44,15.90
2017,10,24,16,45,15.90
2017,10,24,16,46,15.90
2017,10,24,16,47,15.90
2017,10,24,16,48,15.90
2017,10,24,16,49,15.80
2017,10,24,16,50,15.80
2017,10,24,16,51,15.80
2017,10,24,16,52,15.80
2017,10,24,16,53,15.80
2017,10,24,16,54,15.80
2017,10,24,16,55,15.70
2017,10,24,16,56,15.70
2017,10,24,16,57,15.70
2017,10,24,16,58,15.70
2017,10,24,16,59,15.70
2017,10,24,17,00,15.70
2017,10,24,17,01,15.80
2017,10,24,17,02,15.80
2017,10,24,17,03,15.80
2017,10,24,17,04,15.80
2017,10,24,17,05,15.80
2017,10,24,17,06,15.80
2017,10,24,17,07,15.90
2017,10,24,17,08,15.90
2017,10,24,17,09,15.90
2017,10,24,17,10,15.90
2017,10,24,17,11,15.90
2017,10,24,17,12,15.90
2017,10,24,17,13,15.90
2017,10,24,17,14,15.90
2017,10,24,17,15,15.90
2017,10,24,17,16,15.90
2017,10,24,17,17,15.80
2017,10,24,17,18,15.80
2017,10,24,17,19,15.80
2017,10,24,17,20,15.80
2017,10,24,17,21,15.80
2017,10,24,17,22,15.80
2017,10,24,17,23,15.80
2017,10,24,17,24,15.80
2017,10,24,17,25,15.80
2017,10,24,17,26,15.80
2017,10,24,17,27,15.80
2017,10,24,17,28,15.80
2017,10,24,17,29,15.80
2017,10,24,17,30,15.70
2017,10,24,17,31,15.70
2017,10,24,17,32,15.70
2017,10,24,17,33,15.70
2017,10,24,17,34,15.70
2017,10,24,17,35,15.70
2017,10,24,17,36,15.70
2017,10,24,17,37,15.70
2017,10,24,17,38,15.70
2017,10,24,17,39,15.70
2017,10,24,17,40,15.70
2017,10,24,17,41,15.70
2017,10,24,17,42,15.70
2017,10,24,17,43,15.70
2017,10,24,17,44,15.60
2017,10,24,17,45,15.60